OpenBCM V1.07b12 (Linux)

Packet Radio Mailbox

DB0FHN

[JN59NK Nuernberg]

 Login: GUEST





  
CX7BY  > KEPS     18.04.03 05:17l 277 Lines 7261 Bytes #999 (0) @ AMSAT
BID : ORB03107.D
Read: DB0FHN GUEST
Subj: Orbital Elements  03107.MICROS
Path: DB0FHN<DB0RGB<DB0MRW<OK0PKL<OK0PCC<OK0NAG<9A0BBS<PP5AQ<HA3PG<ON0BEL<
      CX2ACB<CX7BY
Sent: 030418/0304Z @:CX7BY.MVD.URY.SA #:36332 [Montevideo] FBB $:ORB03107.D
From: CX7BY@CX7BY.MVD.URY.SA
To  : KEPS@AMSAT


HR AMSAT ORBITAL ELEMENTS FOR THE MICROSATS
FROM WA5QGD FORT WORTH,TX April 17, 2003
SEND SUBSCRIBE/UNSUBSCRIBE TO majordomo@amsat.org ONLY
BID: ORB03107.D
TO ALL RADIO AMATEURS BT

Satellite: UO-14
Catalog number: 20437
Epoch time:      03106.68464532
Element set:     210
Inclination:       98.2614 deg
RA of node:       147.5408 deg
Eccentricity:    0.0011658
Arg of perigee:    35.4336 deg
Mean anomaly:     324.7607 deg
Mean motion:   14.31257854 rev/day
Decay rate:        8.3e-07 rev/day^2
Epoch rev:           69066
Checksum:              294

Satellite: AO-16
Catalog number: 20439
Epoch time:      03106.62020954
Element set:     879
Inclination:       98.3061 deg
RA of node:       159.4917 deg
Eccentricity:    0.0011657
Arg of perigee:    42.9059 deg
Mean anomaly:     317.3035 deg
Mean motion:   14.31495686 rev/day
Decay rate:       1.10e-06 rev/day^2
Epoch rev:           69069
Checksum:              310

Satellite: WO-18
Catalog number: 20441
Epoch time:      03107.85583016
Element set:      60
Inclination:       98.3208 deg
RA of node:       163.8757 deg
Eccentricity:    0.0012507
Arg of perigee:    39.2677 deg
Mean anomaly:     320.9409 deg
Mean motion:   14.31577267 rev/day
Decay rate:       1.08e-06 rev/day^2
Epoch rev:           69092
Checksum:              304

Satellite: LO-19
Catalog number: 20442
Epoch time:      03106.70942263
Element set:    0009
Inclination:      098.3376 deg
RA of node:       165.9053 deg
Eccentricity:    0.0012900
Arg of perigee:   040.0237 deg
Mean anomaly:     320.1890 deg
Mean motion:   14.31740885 rev/day
Decay rate:       1.02e-06 rev/day^2
Epoch rev:           69081
Checksum:              268

Satellite: UO-22
Catalog number: 21575
Epoch time:      03107.56090131
Element set:     776
Inclination:       98.1471 deg
RA of node:        96.7906 deg
Eccentricity:    0.0007127
Arg of perigee:   327.4469 deg
Mean anomaly:      32.6279 deg
Mean motion:   14.39198438 rev/day
Decay rate:       2.39e-06 rev/day^2
Epoch rev:           61662
Checksum:              323

Satellite: KO-23
Catalog number: 22077
Epoch time:      03107.17560790
Element set:     169
Inclination:       66.0845 deg
RA of node:         5.0901 deg
Eccentricity:    0.0015598
Arg of perigee:   261.5286 deg
Mean anomaly:      98.3964 deg
Mean motion:   12.86410556 rev/day
Decay rate:       -3.7e-07 rev/day^2
Epoch rev:           50171
Checksum:              300

Satellite: AO-27
Catalog number: 22825
Epoch time:      03107.87045557
Element set:     534
Inclination:       98.2706 deg
RA of node:       134.5836 deg
Eccentricity:    0.0009625
Arg of perigee:    86.3150 deg
Mean anomaly:     273.9132 deg
Mean motion:   14.28964513 rev/day
Decay rate:        9.9e-07 rev/day^2
Epoch rev:           49820
Checksum:              321

Satellite: IO-26
Catalog number: 22826
Epoch time:      03107.82159304
Element set:     337
Inclination:       98.2699 deg
RA of node:       135.6757 deg
Eccentricity:    0.0009985
Arg of perigee:    84.8395 deg
Mean anomaly:     275.3924 deg
Mean motion:   14.29189510 rev/day
Decay rate:       1.14e-06 rev/day^2
Epoch rev:           49824
Checksum:              344

Satellite: KO-25
Catalog number: 22828
Epoch time:      03107.64807516
Element set:     474
Inclination:       98.2624 deg
RA of node:       135.7745 deg
Eccentricity:    0.0010975
Arg of perigee:    66.8751 deg
Mean anomaly:     293.3587 deg
Mean motion:   14.29528075 rev/day
Decay rate:        8.7e-07 rev/day^2
Epoch rev:           46642
Checksum:              338

Satellite: TO-31
Catalog number: 25396
Epoch time:      03106.96120389
Element set:    0841
Inclination:      098.6162 deg
RA of node:       182.9104 deg
Eccentricity:    0.0002013
Arg of perigee:   352.1363 deg
Mean anomaly:     007.9785 deg
Mean motion:   14.23529731 rev/day
Decay rate:       -4.3e-07 rev/day^2
Epoch rev:           24769
Checksum:              296

Satellite: GO-32
Catalog number: 25397
Epoch time:      03106.93510874
Element set:    0166
Inclination:      098.6138 deg
RA of node:       181.6945 deg
Eccentricity:    0.0001434
Arg of perigee:   022.9855 deg
Mean anomaly:     337.1386 deg
Mean motion:   14.22973451 rev/day
Decay rate:        3.6e-07 rev/day^2
Epoch rev:           24765
Checksum:              316

Satellite: UO-36
Catalog number: 25693
Epoch time:      03107.73440857
Element set:     884
Inclination:       64.5623 deg
RA of node:       192.7469 deg
Eccentricity:    0.0025703
Arg of perigee:   312.8357 deg
Mean anomaly:      47.0586 deg
Mean motion:   14.76452482 rev/day
Decay rate:       2.24e-06 rev/day^2
Epoch rev:           21484
Checksum:              323

Satellite: AO-37
Catalog number: 26065
Epoch time:      03107.50180482
Element set:     782
Inclination:      100.1987 deg
RA of node:       172.7207 deg
Eccentricity:    0.0037940
Arg of perigee:   124.6385 deg
Mean anomaly:     235.8382 deg
Mean motion:   14.35537304 rev/day
Decay rate:       1.02e-06 rev/day^2
Epoch rev:           16869
Checksum:              298

Satellite: SO-41
Catalog number: 26545
Epoch time:      03107.55878709
Element set:     439
Inclination:       64.5591 deg
RA of node:       213.6694 deg
Eccentricity:    0.0047639
Arg of perigee:   229.5945 deg
Mean anomaly:     130.0965 deg
Mean motion:   14.79133728 rev/day
Decay rate:       7.02e-06 rev/day^2
Epoch rev:           13779
Checksum:              344

Satellite: MO-46
Catalog number: 26548
Epoch time:      03107.28829745
Element set:     442
Inclination:       64.5575 deg
RA of node:       206.7420 deg
Eccentricity:    0.0040890
Arg of perigee:   230.0407 deg
Mean anomaly:     129.7116 deg
Mean motion:   14.81467719 rev/day
Decay rate:       9.70e-06 rev/day^2
Epoch rev:           13791
Checksum:              313

Satellite: SO-42
Catalog number: 26549
Epoch time:      03106.75710708
Element set:    0736
Inclination:      064.5525 deg
RA of node:       220.5422 deg
Eccentricity:    0.0052138
Arg of perigee:   229.3080 deg
Mean anomaly:     130.3488 deg
Mean motion:   14.78063681 rev/day
Decay rate:       7.55e-06 rev/day^2
Epoch rev:           13759
Checksum:              303

Satellite: NO-44
Catalog number: 26931
Epoch time:      03106.98155391
Element set:    0457
Inclination:      067.0469 deg
RA of node:       107.8071 deg
Eccentricity:    0.0005861
Arg of perigee:   273.7340 deg
Mean anomaly:     086.3090 deg
Mean motion:   14.29147780 rev/day
Decay rate:       1.11e-06 rev/day^2
Epoch rev:           08055
Checksum:              298

Satellite: AO-49
Catalog number: 27605
Epoch time:      03107.82624696
Element set:     110
Inclination:       64.5516 deg
RA of node:        20.3229 deg
Eccentricity:    0.0034891
Arg of perigee:    86.4887 deg
Mean anomaly:     274.0196 deg
Mean motion:   14.71462555 rev/day
Decay rate:       3.09e-06 rev/day^2
Epoch rev:            1738
Checksum:              310

Satellite: SO-50
Catalog number: 27607
Epoch time:      03107.26584043
Element set:     103
Inclination:       64.5520 deg
RA of node:        22.8702 deg
Eccentricity:    0.0036236
Arg of perigee:    83.3992 deg
Mean anomaly:     277.1227 deg
Mean motion:   14.70034792 rev/day
Decay rate:       5.46e-06 rev/day^2
Epoch rev:            1728
Checksum:              279



Read previous mail | Read next mail


 17.09.2025 17:55:16lGo back Go up